Location: Antist
(43.1184°N, 0.1270°E)
Time: 01:29:24
(UTC+00:00)

Cosmos 1626 - Pass Details

Date: 19 January 2020
Orbit: 492 x 495 km, 82.5° (Epoch: 22 February)

Event Time Altitude Azimuth Distance (km) Brightness Sun altitude
Rises 18:38:42 0° 215° (SW) 2,565 6.4 -18.8°
Reaches altitude 10° 18:41:05 10° 230° (SW) 1,688 5.7 -19.2°
Maximum altitude 18:44:09 24° 286° (WNW) 1,055 4.4 -19.8°
Drops below altitude 10° 18:47:14 10° 342° (NNW) 1,702 4.9 -20.3°
Sets 18:49:39 0° 356° (N) 2,590 5.7 -20.8°
